Home > Weather > Birmingham > Past weeks

Flag for United Kingdom Past Weather in Birmingham, England, United Kingdom — Yesterday and Last 2 Weeks

Now
59 °F

Scattered clouds.


Feels Like: 57 °F
Forecast: 41 / 53 °F
Wind: 10 mph from East

Location: Birmingham / Airport

Current Time: May 24, 2016 at 1:04:06 PM

Latest Report: May 24, 2016 at 12:20 PM


Visibility: N/A

Pressure: 30.18 "Hg

Humidity: 48%

Dew Point: 39 °F

Location of BirminghamLocation

Past Weather in Birmingham — Graph

°F

Birmingham Temperature Yesterday

Maximum temperature yesterday: 63 °F (at 2:50 PM)
Minimum temperature yesterday: 46 °F (at 4:20 AM)
Average temperature yesterday: 55 °F

High & Low Weather Summary for the Past Weeks

 TemperatureHumidityPressure
High75 °F (May 9, 2:20 PM)100% (May 10, 7:50 AM)30.21 "Hg (May 10, 7:50 AM)
Low39 °F (May 15, 4:50 AM)39% (May 14, 6:20 PM)29.56 "Hg (May 18, 11:20 AM)
Average55 °F77%29.88 "Hg
* Reported May 9 12:20 PM — May 24 12:20 PM, Birmingham, Weather by CustomWeather, © 2016

Note: Actual official high and low records may vary slightly from our data, if they occured in-between our weather recording intervals... More about our weather records

Advertising

Birmingham Weather History for the Previous 24 Hours

Scroll right to see more
 ConditionsComfort  
Time TempWeatherWind HumidityBarometerVisibility
12:20 PM
Tue, May 24
59 °FScattered clouds.10 mph48%30.18 "HgN/A
11:20 AM59 °FPassing clouds.13 mph48%30.21 "HgN/A
10:50 AM57 °FPassing clouds.10 mph51%30.21 "HgN/A
10:20 AM57 °FPassing clouds.9 mph51%30.21 "HgN/A
9:50 AM55 °FSunny.9 mph55%30.21 "Hg10 mi
9:20 AM55 °FPassing clouds.8 mph55%30.21 "HgN/A
8:50 AM54 °FPassing clouds.6 mph63%30.21 "HgN/A
8:20 AM52 °FPassing clouds.6 mph72%30.21 "HgN/A
7:50 AM50 °FPassing clouds.6 mph82%30.21 "HgN/A
7:20 AM50 °FPassing clouds.6 mph76%30.21 "HgN/A
6:50 AM48 °FSunny.6 mph87%30.21 "Hg10 mi
6:20 AM48 °FPassing clouds.5 mph87%30.21 "HgN/A
5:50 AM46 °FClear.5 mph93%30.21 "Hg10 mi
5:20 AM46 °FClear.5 mph93%30.21 "Hg10 mi
4:50 AM46 °FPassing clouds.3 mph93%30.21 "HgN/A
4:20 AM48 °FClear.5 mph94%30.21 "Hg10 mi
3:50 AM48 °FClear.5 mph94%30.21 "Hg10 mi
3:20 AM48 °FClear.3 mph94%30.21 "Hg10 mi
2:50 AM48 °FClear.2 mph94%30.21 "Hg10 mi
2:20 AM48 °FClear.5 mph94%30.18 "Hg10 mi
1:50 AM50 °FPassing clouds.5 mph94%30.18 "HgN/A
1:20 AM50 °FClear.6 mph88%30.18 "Hg10 mi
12:50 AM50 °FClear.5 mph88%30.18 "Hg10 mi
12:20 AM52 °FClear.6 mph82%30.18 "Hg10 mi
11:50 PM
Mon, May 23
54 °FClear.6 mph82%30.18 "Hg10 mi
11:20 PM54 °FClear.6 mph82%30.18 "Hg10 mi
10:50 PM54 °FClear.6 mph82%30.18 "Hg10 mi
10:20 PM54 °FPassing clouds.7 mph82%30.18 "HgN/A
9:50 PM55 °FSunny.6 mph72%30.18 "Hg10 mi
9:20 PM55 °FSunny.8 mph72%30.18 "Hg10 mi
8:50 PM57 °FSunny.10 mph63%30.18 "Hg10 mi
8:20 PM59 °FPassing clouds.13 mph55%30.15 "HgN/A
7:50 PM61 °FPassing clouds.13 mph52%30.15 "HgN/A
7:20 PM61 °FPassing clouds.10 mph52%30.15 "HgN/A
6:50 PM61 °FPassing clouds.13 mph52%30.15 "HgN/A
6:20 PM61 °FPassing clouds.13 mph52%30.12 "HgN/A
5:50 PM61 °FPassing clouds.13 mph52%30.12 "HgN/A
5:20 PM61 °FPassing clouds.12 mph52%30.12 "HgN/A
4:50 PM61 °FPassing clouds.13 mph55%30.12 "HgN/A
4:20 PM61 °FPassing clouds.14 mph55%30.12 "HgN/A
3:50 PM61 °FScattered clouds.12 mph55%30.12 "HgN/A
3:20 PM63 °FScattered clouds.12 mph49%30.12 "HgN/A
2:50 PM63 °FScattered clouds.10 mph45%30.12 "HgN/A
2:20 PM61 °FScattered clouds.12 mph52%30.09 "HgN/A
1:50 PM61 °FScattered clouds.12 mph52%30.09 "HgN/A
1:20 PM61 °FScattered clouds.9 mph52%30.09 "Hg4 mi
Weather by CustomWeather, © 2016

See weather overviewHow to use our weather pages